This is the latest recevied weather packets stored in our database for station/object DL9LA-13. If no packets are shown the sender has not sent any weather packets the latest 10 day(s).
| Time | Temp. | Humidity | Pressure | Rain* | Wind** | Luminosity | Snow |
|---|---|---|---|---|---|---|---|
| 1778043122 | 14.44° C | 87% | 963 hPa | - | - | - | - |
| 1778040104 | 14.44° C | 89% | 963 hPa | - | - | - | - |
| 1778037085 | 13.89° C | 90% | 964 hPa | - | - | - | - |
| 1778035275 | 14.44° C | 88% | 963 hPa | - | - | - | - |
| 1778031653 | 15° C | 96% | 964 hPa | - | - | - | - |
| 1778031050 | 15° C | 92% | 964 hPa | - | - | - | - |
| 1778029842 | 15.56° C | 96% | 964 hPa | - | - | - | - |
| 1778027427 | 15.56° C | 96% | 964 hPa | - | - | - | - |
| 1778026824 | 15.56° C | 96% | 964 hPa | - | - | - | - |
| 1778026220 | 15.56° C | 94% | 964 hPa | - | - | - | - |
| 1778025013 | 16.11° C | 88% | 964 hPa | - | - | - | - |
| 1778024409 | 16.11° C | 88% | 964 hPa | - | - | - | - |
| 1778023805 | 16.11° C | 90% | 964 hPa | - | - | - | - |
| 1778022598 | 16.11° C | 93% | 964 hPa | - | - | - | - |
| 1778021994 | 16.11° C | 95% | 964 hPa | - | - | - | - |
| 1778020787 | 16.11° C | 94% | 964 hPa | - | - | - | - |
| 1778020183 | 16.11° C | 92% | 964 hPa | - | - | - | - |
| 1778019580 | 16.67° C | 89% | 964 hPa | - | - | - | - |
| 1778018976 | 16.67° C | 89% | 964 hPa | - | - | - | - |
| 1778018372 | 16.67° C | 89% | 964 hPa | - | - | - | - |
| 1778017165 | 16.11° C | 92% | 964 hPa | - | - | - | - |
| 1778016562 | 16.67° C | 89% | 964 hPa | - | - | - | - |
| 1778015354 | 16.11° C | 90% | 964 hPa | - | - | - | - |
| 1778014751 | 16.11° C | 88% | 964 hPa | - | - | - | - |
| 1778013543 | 16.67° C | 85% | 963 hPa | - | - | - | - |
* Rain since midnight (hover to see other rain measurements)
** Current wind speed in m/s (hover to see current wind gust speed)